Flag for Germany Weather past 2 weeks in Ehingen (Donau), Baden-Württemberg, Germany

Now
68 °F

Scattered clouds.


Feels Like: 68 °F
Forecast: 56 / 73 °F
Wind: 8 mph from East

Location: Laupheim Airport

Current Time: Jul 23, 2014 at 10:54:27 AM

Latest Report: Jul 23, 2014 at 10:20 AM


Visibility: N/A

Pressure: 30.04 "Hg

Humidity: 78%

Dew point: 61 °F

Location of Ehingen (Donau)Location

Historic Weather in Ehingen (Donau) — Graph

°F

Ehingen (Donau) temperature yesterday

Maximum temperature yesterday: 70 °F (at 5:20 PM)
Minimum temperature yesterday: 61 °F (at 12:20 AM)
Average temperature yesterday: 64 °F

Past Weeks' High & Low Weather Summary

 TemperatureHumidityPressure
High90 °F (Jul 19, 5:20 PM)100% (Jul 11, 3:20 AM)30.21 "Hg (Jul 11, 3:20 AM)
Low50 °F (Jul 10, 1:20 AM)29% (Jul 19, 5:20 PM)29.80 "Hg (Jul 10, 2:20 AM)
Average64 °F76%29.99 "Hg
* Reported Jul 8 7:20 AM — Jul 23 7:20 AM, Ehingen (Donau), Weather by CustomWeather, © 2014

Note: Actual official high and low records may vary slightly from our data, if they occured in-between our weather recording intervals... More about our weather records

Advertising

Ehingen (Donau) weather history for previous 24 hours

 ConditionsComfort  
Time TempWeatherWind HumidityBarometerVisibility
7:20 AM
Jul 23
59 °FFog.No wind100%30.04 "Hg2 mi
6:53 AM57 °FFog.No wind100%30.04 "Hg1 mi
6:20 AM55 °FFog.No wind100%30.04 "Hg0 mi
5:20 AM55 °FFog.1 mph100%30.01 "Hg0 mi
4:20 AM57 °FFog.3 mph100%30.01 "Hg0 mi
3:20 AM57 °FFog.1 mph100%30.01 "Hg0 mi
2:20 AM59 °FFog.2 mph100%30.01 "Hg0 mi
1:20 AM59 °FFog.1 mph100%30.04 "Hg0 mi
6:20 PM
Jul 22
70 °FRain showers. Fog.3 mph83%29.98 "Hg2 mi
5:20 PM70 °FBroken clouds.6 mph83%29.98 "HgN/A
4:20 PM68 °FLight rain. Broken clouds.7 mph88%29.98 "Hg5 mi
3:20 PM64 °FRain showers. Fog.5 mph94%29.98 "Hg3 mi
2:47 PM64 °FLots of rain. Fog.10 mph94%29.98 "Hg2 mi
2:20 PM66 °FPartly sunny.10 mph88%29.95 "Hg5 mi
1:20 PM68 °FPartly sunny.12 mph88%29.95 "Hg6 mi
12:20 PM66 °FPartly sunny.9 mph94%29.92 "Hg5 mi
11:20 AM66 °FLight rain. Partly sunny.9 mph94%29.92 "Hg5 mi
11:01 AM64 °FRain. Fog.8 mph100%29.92 "Hg2 mi
10:20 AM64 °FRain. Fog.6 mph100%29.92 "Hg1 mi
Weather by CustomWeather, © 2014

See weather overviewHow to use our weather pages